Regional Weather Roundup
Issued by NWS Sterling, VA

Home | Current Version | Previous Version | Text Only | Print | Product List | Glossary On
Versions: 1 2 3 4 5 6 7 8 9 10 11 12 13 14 15 16 17 18 19 20 21 22 23 24 25 26 27
000
ASUS41 KLWX 240410
RWRLWX

REGIONAL WEATHER ROUNDUP
NATIONAL WEATHER SERVICE BALTIMORE MD/WASHINGTON DC
1200 AM EDT WED AUG 24 2016

Note: "FAIR" indicates few or no clouds below 12,000 feet
with no significant weather and/or obstructions to visibility.
 TC=TEMPERATURE CELSIUS

 * =Non NWS site. Station does not report precipitation (e.g. rain,
    snow, etc.), thunder, or fog.

DCZ001-MDZ009-015-VAZ040>042-051-053>054-240500-
WASHINGTON METRO

CITY           SKY/WX    TMP DP  RH WIND       PRES   REMARKS
WASHINGTON NAT CLEAR     72  61  68 SW5       30.30S
DULLES         PTCLDY    69  60  73 CALM      30.31R
ANDREWS AFB    CLEAR     67  58  72 S6        30.29S
FT BELVOIR     CLEAR     65  63  93 CALM      30.29S
QUANTICO       CLEAR     71  65  81 NW7       30.31R
COLLEGE PARK*  CLEAR     63  59  88 CALM      30.29F
LEESBURG*      CLEAR     70  66  88 CALM      30.32R
MANASSAS*      CLEAR     64  64 100 CALM      30.31R
GAITHERSBURG*  CLEAR     66  55  68 SE3       30.34S

$$

MDZ006>007-011-014-240500-
BALTIMORE METRO

CITY           SKY/WX    TMP DP  RH WIND       PRES   REMARKS
BWI AIRPORT    CLEAR     65  60  84 CALM      30.29S
MD SCIENCE CTR   N/A     74  57  55 MISG      30.29S
MARTIN STATE   CLEAR     68  66  94 CALM      30.30F
ANNAPOLIS      CLEAR     71  63  75 CALM      30.29S
FORT MEADE*    CLEAR     61  59  94 CALM      30.32S

$$

MDZ012-015-019>023-240500-
MARYLAND EASTERN SHORE

CITY           SKY/WX    TMP DP  RH WIND       PRES   REMARKS
OCEAN CITY     CLEAR     62  59  90 CALM      30.31R
SALISBURY      CLEAR     62  59  90 CALM      30.30S
BAY BRIDGE AP* CLEAR     73  64  73 S7        30.29S
CAMBRIDGE*     CLEAR     63  59  88 CALM      30.30F
EASTON*        CLEAR     69  63  80 S3        30.34S

$$

MDZ017>025-240500-
SOUTHERN MARYLAND

CITY           SKY/WX    TMP DP  RH WIND       PRES   REMARKS
PATUXENT RIVER CLEAR     69  60  73 S6        30.29S
ST INIGOES     CLEAR     66  62  87 SE3       30.29S
LEONARDTOWN*   CLEAR     68  61  77 CALM      30.31F

$$

MDZ003>005-240500-
NORTH CENTRAL MARYLAND

CITY           SKY/WX    TMP DP  RH WIND       PRES   REMARKS
FREDERICK*     CLEAR     64  64 100 CALM      30.33R
HAGERSTOWN APT CLEAR     69  60  73 SE3       30.30R

$$

MDZ501>502-240500-
WESTERN MARYLAND

CITY           SKY/WX    TMP DP  RH WIND       PRES   REMARKS
OAKLAND*       CLEAR     61  55  82 SE5       30.36F
CUMBERLAND*    CLEAR     68  63  83 N3        30.33S

$$

VAZ025>031-240500-
SHENANDOAH VALLEY

CITY           SKY/WX    TMP DP  RH WIND       PRES   REMARKS
WINCHESTER*    CLEAR     64  63  94 CALM      30.30S
FRONT ROYAL*   FAIR      64  63  94 CALM      30.30R
LURAY*         FAIR     N/A N/A N/A CALM      30.31S
NEW MARKET*    FAIR     N/A N/A N/A CALM      30.30S
STAUNTON*      CLEAR     63  60  93 CALM      30.34S
WAYNESBORO*    FAIR      64  61  89 CALM      30.33S

$$

WVZ021-048>050-054>055-240500-
EASTERN WEST VIRGINIA PANHANDLE

CITY           SKY/WX    TMP DP  RH WIND       PRES   REMARKS
MARTINSBURG    CLEAR     65  62  90 CALM      30.29S
PETERSBURG*    CLEAR     62  61  95 CALM      30.30S

$$

VAZ036>039-050-240500-
CENTRAL FOOTHILLS

CITY           SKY/WX    TMP DP  RH WIND       PRES   REMARKS
CHARLOTTESVILL CLEAR     68  64  87 CALM      30.31R
CULPEPER*      CLEAR     65  64  99 CALM      30.32R
ORANGE*          N/A     64  64 100 CALM      30.33R
GORDONSVILLE*  FAIR      64  64 100 CALM      30.31R
WARRENTON*     FAIR      64  58  81 CALM      30.30R

$$

VAZ055>057-240500-
NORTH AND CENTRAL PIEDMONT

CITY           SKY/WX    TMP DP  RH WIND       PRES   REMARKS
FREDERICKSBRG* CLEAR     66  63  90 CALM      30.30R
STAFFORD*      CLEAR     62  61  97 CALM      30.35R

$$

NCZ024-NYZ072-PAZ021-071-VAZ022-071-240500-
OTHER REGIONAL OBSERVATIONS

CITY           SKY/WX    TMP DP  RH WIND       PRES   REMARKS
NEW YORK CITY  CLEAR     72  58  61 CALM      30.30R
PHILADELPHIA   PTCLDY    73  60  63 SW8       30.30R
PITTSBURGH     CLEAR     65  58  78 CALM      30.27S
ROANOKE        MOCLDY    68  65  90 CALM      30.34R
RICHMOND       CLEAR     66  59  78 SE7       30.30S
RALEIGH        PTCLDY    73  63  70 E5        30.30R

$$

ANZ530>537-240500-
MARINE OBSERVATIONS

STATION/POSITION TIME  TEMP    WIND        PRES
                       AIR SEA DIR/SP/G
                 (UTC) (F)     (DEG/KT/KT) (MB)
THOMAS PT LIGHT  0400   77 82  160/ 13/ 14 1026.8F
BALT KEY BRIDGE  0348   73     220/  2/  3 1025.7S
COVE POINT       0348   75     210/  7/ 10 1026.4R
LEWISETTA        0348   73 82  190/  5/  6 1025.7R
SOLOMONS ISLAND  0348   75 84  170/  8/ 10   N/A
PINEY POINT      0348          180/ 13/ 14   N/A

$$





USA.gov is the U.S. government's official web portal to all federal, state and local government web resources and services.